Powrót do katalogu

SCOUT A R/B

AktywnyPO
NORAD 2413·ROCKET BODY·🇺🇸 United States

Wystrzelony Aug 18, 1966 z Vandenberg Space Force Base

Loading…

Następne Przeloty (najbliższe 24 godziny)

TLE

ŚwieżeSource: Space-Track

Epoka: Sep 14, 2026, 21:08 UTC

1 02413U 66076B   26257.88112967  .00000050  00000-0  57181-4 0  9990
2 02413  88.8432  61.2588 0032761 163.2680 196.9560 13.51881280960772

Śledź SCOUT A R/B w czasie rzeczywistym z AllMySat

Download on the App Store